When you browse on this site, cookies collect data to enhance your experience and personalize the content and advertising you see.
Visit our Privacy Policy to learn more. By continuing to use the site, you agree to this use of cookies and data.
  • en Belgique
  • Liste des pays
  • À 7 jours
  • Température de l'eau
  • Carte météo
  • Widgets météo
  • user-avatar
    Se connecter

    Météo par heure à Kanye

    Ce jour, 2 Juin, Mardi

    Heure Température Précipitation Vent Pression Humidité
    00:00 +12°C° 0 mm 1 m/s 655 mmHg 39%
    01:00 +12°C° 0 mm 1 m/s 655 mmHg 42%
    02:00 +11°C° 0 mm 1 m/s 655 mmHg 46%
    03:00 +11°C° 0 mm 1 m/s 655 mmHg 48%
    04:00 +10°C° 0 mm 1 m/s 655 mmHg 49%
    05:00 +10°C° 0 mm 1 m/s 654 mmHg 51%
    06:00 +11°C° 0 mm 1 m/s 655 mmHg 45%
    07:00 +12°C° 0 mm 1 m/s 656 mmHg 39%
    08:00 +14°C° 0 mm 2 m/s 657 mmHg 35%
    09:00 +16°C° 0 mm 2 m/s 658 mmHg 31%
    10:00 +19°C° 0 mm 2 m/s 658 mmHg 27%
    11:00 +21°C° 0 mm 2 m/s 658 mmHg 23%
    12:00 +23°C° 0 mm 2 m/s 658 mmHg 20%
    13:00 +24°C° 0 mm 3 m/s 658 mmHg 18%
    14:00 +25°C° 0 mm 3 m/s 657 mmHg 16%
    15:00 +24°C° 0 mm 3 m/s 657 mmHg 17%
    16:00 +24°C° 0 mm 2 m/s 656 mmHg 19%
    17:00 +23°C° 0 mm 2 m/s 656 mmHg 21%
    18:00 +19°C° 0 mm 2 m/s 655 mmHg 26%
    19:00 +17°C° 0 mm 2 m/s 655 mmHg 32%
    20:00 +15°C° 0 mm 2 m/s 655 mmHg 38%
    21:00 +14°C° 0 mm 1 m/s 655 mmHg 41%
    22:00 +14°C° 0 mm 1 m/s 654 mmHg 44%
    23:00 +13°C° 0 mm 1 m/s 654 mmHg 48%

    Demain, 3 Juin, Mercredi

    Heure Température Précipitation Vent Pression Humidité
    00:00 +13°C° 0 mm 1 m/s 654 mmHg 50%
    01:00 +12°C° 0 mm 1 m/s 654 mmHg 52%
    02:00 +12°C° 0 mm 1 m/s 654 mmHg 54%
    03:00 +12°C° 0 mm 1 m/s 654 mmHg 55%
    04:00 +11°C° 0 mm 1 m/s 654 mmHg 56%
    05:00 +10°C° 0 mm 2 m/s 654 mmHg 56%
    06:00 +12°C° 0 mm 2 m/s 654 mmHg 55%
    07:00 +12°C° 0 mm 1 m/s 655 mmHg 53%
    08:00 +13°C° 0 mm 1 m/s 655 mmHg 51%
    09:00 +15°C° 0 mm 2 m/s 656 mmHg 45%
    10:00 +18°C° 0 mm 2 m/s 656 mmHg 38%
    11:00 +20°C° 0 mm 2 m/s 657 mmHg 32%
    12:00 +21°C° 0 mm 2 m/s 656 mmHg 28%
    13:00 +23°C° 0 mm 2 m/s 656 mmHg 24%
    14:00 +24°C° 0 mm 2 m/s 655 mmHg 21%
    15:00 +24°C° 0 mm 2 m/s 655 mmHg 22%
    16:00 +23°C° 0 mm 2 m/s 654 mmHg 23%
    17:00 +21°C° 0 mm 2 m/s 654 mmHg 24%
    18:00 +19°C° 0 mm 2 m/s 654 mmHg 28%
    19:00 +17°C° 0 mm 2 m/s 653 mmHg 33%
    20:00 +14°C° 0 mm 1 m/s 653 mmHg 38%
    21:00 +14°C° 0 mm 1 m/s 653 mmHg 39%
    22:00 +13°C° 0 mm 1 m/s 653 mmHg 41%
    23:00 +13°C° 0 mm 1 m/s 653 mmHg 43%

    Après-demain, 4 Juin, Jeudi

    Heure Température Précipitation Vent Pression Humidité
    00:00 +12°C° 0 mm 1 m/s 653 mmHg 46%
    01:00 +12°C° 0 mm 1 m/s 652 mmHg 50%
    02:00 +11°C° 0 mm 1 m/s 652 mmHg 53%
    03:00 +11°C° 0 mm 1 m/s 652 mmHg 54%
    04:00 +11°C° 0 mm 1 m/s 652 mmHg 55%
    05:00 +10°C° 0 mm 1 m/s 652 mmHg 56%
    06:00 +11°C° 0 mm 1 m/s 653 mmHg 53%
    07:00 +12°C° 0 mm 2 m/s 653 mmHg 50%
    08:00 +13°C° 0 mm 2 m/s 654 mmHg 47%
    09:00 +15°C° 0 mm 2 m/s 655 mmHg 41%
    10:00 +18°C° 0 mm 3 m/s 656 mmHg 34%
    11:00 +21°C° 0 mm 3 m/s 656 mmHg 27%
    12:00 +22°C° 0 mm 3 m/s 656 mmHg 24%
    13:00 +24°C° 0 mm 3 m/s 656 mmHg 22%
    14:00 +25°C° 0 mm 3 m/s 655 mmHg 19%
    15:00 +24°C° 0 mm 3 m/s 655 mmHg 20%
    16:00 +22°C° 0 mm 3 m/s 655 mmHg 21%
    17:00 +21°C° 0 mm 2 m/s 654 mmHg 22%
    18:00 +19°C° 0 mm 2 m/s 654 mmHg 26%
    19:00 +17°C° 0 mm 3 m/s 654 mmHg 30%
    20:00 +14°C° 0 mm 3 m/s 654 mmHg 34%
    21:00 +14°C° 0 mm 2 m/s 654 mmHg 36%
    22:00 +14°C° 0 mm 2 m/s 654 mmHg 38%
    23:00 +13°C° 0 mm 2 m/s 654 mmHg 41%

    5 Juin, Vendredi

    Heure Température Précipitation Vent Pression Humidité
    00:00 +12°C° 0 mm 2 m/s 654 mmHg 43%
    01:00 +12°C° 0 mm 2 m/s 654 mmHg 45%
    02:00 +10°C° 0 mm 2 m/s 653 mmHg 47%
    03:00 +10°C° 0 mm 2 m/s 654 mmHg 50%
    04:00 +9°C° 0 mm 2 m/s 654 mmHg 53%
    05:00 +9°C° 0 mm 3 m/s 654 mmHg 57%
    06:00 +9°C° 0 mm 3 m/s 654 mmHg 58%
    07:00 +9°C° 0 mm 3 m/s 655 mmHg 59%
    08:00 +10°C° 0 mm 3 m/s 655 mmHg 60%
    09:00 +12°C° 0 mm 3 m/s 656 mmHg 54%
    10:00 +16°C° 0 mm 3 m/s 657 mmHg 48%
    11:00 +18°C° 0 mm 4 m/s 657 mmHg 41%
    12:00 +19°C° 0 mm 3 m/s 657 mmHg 36%
    13:00 +21°C° 0 mm 3 m/s 657 mmHg 31%
    14:00 +23°C° 0 mm 2 m/s 656 mmHg 26%
    15:00 +21°C° 0 mm 2 m/s 656 mmHg 26%
    16:00 +20°C° 0 mm 2 m/s 656 mmHg 27%
    17:00 +20°C° 0 mm 2 m/s 656 mmHg 27%
    18:00 +19°C° 0 mm 1 m/s 655 mmHg 32%
    19:00 +16°C° 0 mm 1 m/s 655 mmHg 37%
    20:00 +14°C° 0 mm 1 m/s 655 mmHg 42%
    21:00 +13°C° 0 mm 1 m/s 655 mmHg 44%
    22:00 +12°C° 0 mm 1 m/s 655 mmHg 46%
    23:00 +12°C° 0 mm 1 m/s 655 mmHg 48%

    6 Juin, Samedi

    Heure Température Précipitation Vent Pression Humidité
    00:00 +11°C° 0 mm 1 m/s 655 mmHg 51%
    01:00 +11°C° 0 mm 1 m/s 654 mmHg 54%
    02:00 +11°C° 0 mm 1 m/s 654 mmHg 57%
    03:00 +10°C° 0 mm 1 m/s 654 mmHg 57%
    04:00 +10°C° 0 mm 1 m/s 654 mmHg 56%
    05:00 +10°C° 0 mm 1 m/s 654 mmHg 56%
    06:00 +11°C° 0 mm 1 m/s 655 mmHg 53%
    07:00 +11°C° 0 mm 1 m/s 656 mmHg 50%
    08:00 +12°C° 0 mm 1 m/s 656 mmHg 48%
    09:00 +15°C° 0 mm 1 m/s 657 mmHg 42%
    10:00 +18°C° 0 mm 1 m/s 658 mmHg 36%
    11:00 +20°C° 0 mm 2 m/s 658 mmHg 30%
    12:00 +21°C° 0 mm 2 m/s 658 mmHg 26%
    13:00 +23°C° 0 mm 2 m/s 657 mmHg 22%
    14:00 +24°C° 0 mm 2 m/s 657 mmHg 19%
    15:00 +23°C° 0 mm 2 m/s 657 mmHg 20%
    16:00 +21°C° 0 mm 2 m/s 656 mmHg 21%
    17:00 +20°C° 0 mm 2 m/s 656 mmHg 22%
    18:00 +18°C° 0 mm 2 m/s 656 mmHg 26%
    19:00 +16°C° 0 mm 2 m/s 655 mmHg 30%
    20:00 +14°C° 0 mm 2 m/s 655 mmHg 34%
    21:00 +13°C° 0 mm 2 m/s 655 mmHg 37%
    22:00 +13°C° 0 mm 1 m/s 655 mmHg 40%
    23:00 +12°C° 0 mm 1 m/s 655 mmHg 43%

    7 Juin, Dimanche

    Heure Température Précipitation Vent Pression Humidité
    00:00 +11°C° 0 mm 1 m/s 655 mmHg 47%
    01:00 +11°C° 0 mm 1 m/s 655 mmHg 50%
    02:00 +10°C° 0 mm 1 m/s 655 mmHg 53%
    03:00 +10°C° 0 mm 1 m/s 655 mmHg 52%
    04:00 +10°C° 0 mm 1 m/s 654 mmHg 52%
    05:00 +8°C° 0 mm 2 m/s 654 mmHg 52%
    06:00 +9°C° 0 mm 2 m/s 655 mmHg 50%
    07:00 +10°C° 0 mm 2 m/s 656 mmHg 49%
    08:00 +10°C° 0 mm 2 m/s 656 mmHg 47%
    09:00 +14°C° 0 mm 2 m/s 657 mmHg 42%
    10:00 +16°C° 0 mm 2 m/s 657 mmHg 37%
    11:00 +19°C° 0 mm 2 m/s 658 mmHg 32%
    12:00 +20°C° 0 mm 2 m/s 658 mmHg 28%
    13:00 +21°C° 0 mm 2 m/s 657 mmHg 24%
    14:00 +23°C° 0 mm 2 m/s 657 mmHg 20%
    15:00 +21°C° 0 mm 2 m/s 656 mmHg 21%
    16:00 +21°C° 0 mm 2 m/s 656 mmHg 22%
    17:00 +20°C° 0 mm 2 m/s 656 mmHg 23%
    18:00 +18°C° 0 mm 2 m/s 655 mmHg 29%
    19:00 +16°C° 0 mm 2 m/s 655 mmHg 34%
    20:00 +13°C° 0 mm 2 m/s 655 mmHg 40%
    21:00 +13°C° 0 mm 2 m/s 655 mmHg 42%
    22:00 +13°C° 0 mm 2 m/s 655 mmHg 45%
    23:00 +12°C° 0 mm 2 m/s 655 mmHg 47%
    Voir plus